Orbital Elements at Epoch 2459200.5 (2020-Dec-17.0) TDB
Reference: JPL 38 (heliocentric ecliptic J2000)
Element | Value | Uncertainty (1-sigma) | Units |
e | .09949459773955029 | 2.1207e-08 | |
a | 2.907031754162733 | 1.2787e-08 | au |
q | 2.617797799166212 | 6.2822e-08 | au |
i | 5.357570514662432 | 3.3383e-07 | deg |
node | 301.1234285997862 | 8.1982e-06 | deg |
peri | 187.0977200490701 | 1.2036e-05 | deg |
M | 340.5570464924178 | 6.2063e-06 | deg |
tp | 2459298.276126290006 (2021-Mar-24.77612629) | 3.127e-05 | TDB |
period | 1810.393953299097 4.96 | 1.1945e-05 3.27e-08 | d yr |
n | .1988517467946514 | 1.312e-09 | deg/d |
Q | 3.196265709159253 | 1.4059e-08 | au |
|
| | Orbit Determination Parameters
Additional Information
|